Showing default

OPS 9331 (IDSCS 16), 2862

Orbit data source: Space-Track

OPS 9331 (IDSCS 16), 2862 is a payload satellite owned by SAMSO (US) in GEO that was launched on Sat, 01 Jul 1967 UTC via a TITAN IIIC launch vehicle from the Air Force Eastern Test Range (AFETR). Payload-class satellites include a variety of spacecraft equipped with specific instruments for various scientific and technological missions. These include communications satellites like Starlink; space stations such as the ISS; scientific satellites like the Hubble; Earth observation satellites from companies like Planet Labs, Umbra, and HawkEye 360; GPS; miniature CubeSats for education and research; and military/defense satellites.

Loading next visibility...
Identifier
2862, 1967-066A
Orbit
GEO
Country
Flag of USUS
Related business
Manufacturer
Philco-Ford WDL
Mission
Non-operational spacecraft
Bus & Motor
IDCSP, Unknown motor
Mass
45 kg wet, 45 kg dry
Launch date (UTC)
1967-07-01 (59 years ago)
Launch vehicle
TITAN IIIC
Launch site
Air Force Eastern Test Range (AFETR)
Object type
Payload
Rocket body
Debris
Shape & HBR
POLY, 1.1 m
Radar Cross Section
Medium (>0.1 m² and <1 m²)

Expand to show TLE details & history
Last TLE update: 16 hours ago

TLE from 16 hours ago
0 OPS 9331 (IDSCS 16)
1 02862U 67066A   26254.54723698 -.00000097  00000-0  00000-0 0  9993
2 02862   3.0628  92.6546 0061401 250.4602  57.3685  1.09955671138146
Epoch: 2026-09-11T13:08Z
TLE epoch observation values (Epoch: 2026-09-11T13:08:01.275Z)
Latitude
-2.42259°
Longitude
-146.45726°
Altitude
33,141.872 km
Speed
3.181 km/s
True Right ascension
02h 44m 28s
True Declination
-2° 25' 12"
Sunlit
Object was in daylight at epoch
Visualization orbit readout
Latitude
Unknown
Longitude
Unknown
Altitude
Unknown
Speed
Unknown
Apparent Right ascension
Unknown
Apparent Declination
Unknown
Sunlit
N/A
Visualization observer readout
Local Sidereal Time
21:44:51
Azimuth
Unknown
Elevation
Unknown
Doppler factor
Unknown
Orbital elements
Apogee altitude
33,517.701 km
Perigee altitude
33,030.762 km
Semi-major axis
39,652.368 km
Eccentricity
0.00614
Inclination
3.0628°
RAAN
92.6546°
Arg. of periapsis
250.4602°
True anomaly
57.9635°
Mean anomaly
57.3685°
Eccentric anomaly
57.66575°
Mean motion
0.27488 °/min
Orbital period
1,309.67 mins
BSTAR
0
Loading maneuver chart data...
Computing Atmospheric mass density...
Loading historical data...
Loading historical data...
Loading historical data...
Loading historical data...
Loading historical data...
Loading historical data...
Loading historical data...

Documentation

Showing up to 5 results
|